Location: Dumpton Point
(51.3500°N, 1.4433°E)
Time: 10:30:08
(UTC+00:00)

Vanguard 2 Rocket - Visible Passes

Search period start: 27 September 2022 00:00
Search period end: 07 October 2022 00:00
Orbit: 553 x 3323 km, 32.9° (Epoch: 26 September)

Date Brightness Start Highest point End Pass type
(mag) Time Alt. Az. Time Alt. Az. Time Alt. Az.
03 Oct 10.4 20:36:08 10° S 20:39:08 13° S 20:39:08 13° S visible
04 Oct 10.3 19:37:23 10° S 19:42:52 13° SSE 19:42:52 13° SSE visible
04 Oct 10.4 21:46:16 10° SSW 21:48:39 14° SSW 21:48:39 14° SSW visible
05 Oct 10.1 20:45:12 10° SSW 20:52:22 20° S 20:52:22 20° S visible
06 Oct 10.0 19:44:50 10° S 19:55:46 19° SSE 19:56:00 19° SSE visible
06 Oct 10.3 21:57:06 10° SW 22:01:47 18° SSW 22:01:47 18° SSW visible
